Date String (YYYY-MM-DD hh:mm:ss) UTC,Instrument flags,Ambient pressure (hPa),Sample flow (lpm),Bypass flow (lpm),Sample temperature (°C),Ambient temperature (°C),ASC tube jacket temperature (°C),LED temperature (°C),Box temperature (°C),Sample RH (%),Span deviation,Mass concentration (μg/m³),Mass concentration (μg/m³),Mass concentration (μg/m³)
DateTimeUTC,F1_M11,P_M11,Q1_M11,Q2_M11,T1_M11,T2_M11,T3_M11,T4_M11,T5_M11,U1_M11,ZSPAN_M11,X0_M11,X2_M11,X1_M11
2022-03-21 10:00:00,,0819.9,4.99,0.00,25.8,24.8,00.0,35.0,27.5,13.9,0000.0,0013.28,0004.88,0003.32
2022-03-21 10:01:00,,0819.9,5.00,0.00,25.8,24.8,00.0,35.0,27.4,14.0,0000.0,0013.29,0004.87,0003.32
2022-03-21 10:02:00,,0819.9,5.00,0.00,25.8,24.8,00.0,35.0,27.5,14.0,0000.0,0013.61,0004.85,0003.33
2022-03-21 10:03:00,,0819.9,5.00,0.00,25.7,24.8,00.0,35.0,27.5,14.0,0000.0,0014.17,0004.91,0003.33
2022-03-21 10:04:00,,0819.9,5.00,0.00,25.7,24.8,00.0,35.0,27.5,14.0,0000.0,0014.30,0004.93,0003.34
2022-03-21 10:05:00,,0819.9,4.99,0.00,25.7,24.8,00.0,34.9,27.4,14.1,0000.0,0014.02,0004.96,0003.35
2022-03-21 10:06:00,,0819.9,5.00,0.00,25.7,24.8,00.0,34.9,27.4,14.1,0000.0,0013.73,0005.00,0003.36
2022-03-21 10:07:00,,0819.9,5.00,0.00,25.7,24.8,00.0,34.9,27.5,14.1,0000.0,0013.80,0005.00,0003.37
2022-03-21 10:08:00,,0819.9,5.01,0.00,25.7,24.8,00.0,34.9,27.5,14.2,0000.0,0015.09,0004.95,0003.37
2022-03-21 10:09:00,,0819.9,5.01,0.00,25.7,24.8,00.0,34.9,27.5,14.3,0000.0,0014.40,0004.91,0003.38
2022-03-21 10:10:00,,0819.9,4.98,0.00,25.7,24.9,00.0,34.9,27.4,14.4,0000.0,0013.67,0004.81,0003.39
2022-03-21 10:11:00,,0819.9,5.01,0.00,25.7,24.9,00.0,34.8,27.5,14.5,0000.0,0013.18,0004.81,0003.40
2022-03-21 10:12:00,,0820.0,5.00,0.00,25.7,24.9,00.0,34.8,27.5,14.6,0000.0,0013.16,0004.83,0003.41
2022-03-21 10:13:00,,0820.0,5.00,0.00,25.7,24.9,00.0,34.8,27.5,14.7,0000.0,0012.85,0004.80,0003.40
2022-03-21 10:14:00,,0820.1,5.00,0.00,25.7,24.9,00.0,34.8,27.5,14.8,0000.0,0012.22,0004.72,0003.39
2022-03-21 10:15:00,,0820.2,5.00,0.00,25.7,24.8,00.0,34.8,27.5,14.9,0000.0,0012.21,0004.69,0003.38
2022-03-21 10:16:00,,0820.3,5.00,0.00,25.7,24.9,00.0,34.8,27.5,14.9,0000.0,0012.19,0004.67,0003.37
2022-03-21 10:17:00,,0820.3,5.00,0.00,25.8,24.9,00.0,34.8,27.5,14.9,0000.0,0012.34,0004.67,0003.34
2022-03-21 10:18:00,,0820.3,5.00,0.00,25.8,24.9,00.0,34.8,27.5,14.9,0000.0,0012.20,0004.66,0003.32
2022-03-21 10:19:00,,0820.3,5.01,0.00,25.7,24.9,00.0,34.8,27.5,15.0,0000.0,0011.66,0004.63,0003.31
2022-03-21 10:20:00,,0820.3,4.99,0.00,25.7,24.9,00.0,34.8,27.5,15.1,0000.0,0011.98,0004.67,0003.29
2022-03-21 10:21:00,,0820.3,4.99,0.00,25.7,24.9,00.0,34.8,27.5,15.2,0000.0,0011.71,0004.70,0003.28
2022-03-21 10:22:00,,0820.4,5.00,0.00,25.7,24.9,00.0,34.8,27.5,15.3,0000.0,0011.36,0004.63,0003.25
2022-03-21 10:23:00,,0820.4,4.99,0.00,25.7,24.9,00.0,34.8,27.5,15.3,0000.0,0011.28,0004.54,0003.21
2022-03-21 10:24:00,,0820.5,5.01,0.00,25.7,24.9,00.0,34.8,27.5,15.5,0000.0,0011.34,0004.50,0003.17
2022-03-21 10:25:00,,0820.6,5.00,0.00,25.7,24.9,00.0,34.8,27.4,15.5,0000.0,0011.21,0004.49,0003.15
2022-03-21 10:26:00,,0820.6,5.00,0.00,25.7,24.9,00.0,34.8,27.4,15.6,0000.0,0011.13,0004.45,0003.11
2022-03-21 10:27:00,,0820.6,4.99,0.00,25.7,24.9,00.0,34.8,27.4,15.6,0000.0,0011.22,0004.44,0003.07
2022-03-21 10:28:00,,0820.7,5.01,0.00,25.7,24.8,00.0,34.8,27.4,15.7,0000.0,0010.97,0004.40,0003.06
2022-03-21 10:29:00,,0820.7,5.00,0.00,25.6,24.8,00.0,34.8,27.3,16.2,0000.0,0011.31,0004.35,0002.98
2022-03-21 10:30:00,,0820.7,4.99,0.00,25.6,24.7,00.0,34.7,27.3,16.5,0000.0,0010.66,0004.35,0002.93
2022-03-21 10:31:00,,0820.8,5.00,0.00,25.6,24.7,00.0,34.7,27.3,16.6,0000.0,0010.08,0004.31,0002.85
2022-03-21 10:32:00,,0820.8,5.00,0.00,25.6,24.7,00.0,34.7,27.3,16.8,0000.0,0009.68,0004.17,0002.73
2022-03-21 10:33:00,,0820.8,5.00,0.00,25.5,24.6,00.0,34.7,27.3,16.8,0000.0,0009.90,0004.09,0002.64
2022-03-21 10:34:00,,0820.9,4.98,0.00,25.5,24.6,00.0,34.7,27.3,16.9,0000.0,0010.13,0004.07,0002.57
2022-03-21 10:35:00,,0821.0,5.00,0.00,25.5,24.6,00.0,34.7,27.2,16.9,0000.0,0010.12,0004.04,0002.53
2022-03-21 10:36:00,,0821.0,4.99,0.00,25.5,24.6,00.0,34.7,27.2,17.0,0000.0,0010.89,0004.05,0002.50
2022-03-21 10:37:00,,0821.0,5.00,0.00,25.5,24.6,00.0,34.7,27.2,17.0,0000.0,0011.10,0004.03,0002.44
2022-03-21 10:38:00,,0821.0,5.00,0.00,25.5,24.5,00.0,34.6,27.2,17.0,0000.0,0010.99,0003.96,0002.38
2022-03-21 10:39:00,,0821.0,5.00,0.00,25.5,24.5,00.0,34.6,27.2,17.0,0000.0,0010.68,0003.82,0002.31
2022-03-21 10:40:00,,0821.0,5.00,0.00,25.4,24.5,00.0,34.6,27.2,17.0,0000.0,0011.11,0003.74,0002.28
2022-03-21 10:41:00,,0821.1,5.00,0.00,25.4,24.5,00.0,34.6,27.2,17.1,0000.0,0010.89,0003.70,0002.24
2022-03-21 10:42:00,,0821.1,5.00,0.00,25.4,24.5,00.0,34.6,27.1,17.1,0000.0,0010.77,0003.62,0002.21
2022-03-21 10:43:00,,0821.1,5.00,0.00,25.4,24.4,00.0,34.6,27.1,17.2,0000.0,0010.92,0003.60,0002.21
2022-03-21 10:44:00,,0821.2,5.01,0.00,25.3,24.3,00.0,34.5,27.0,17.3,0000.0,0011.28,0003.57,0002.19
2022-03-21 10:45:00,,0821.3,4.99,0.00,25.3,24.3,00.0,34.5,27.0,17.3,0000.0,0010.97,0003.51,0002.18
2022-03-21 10:46:00,,0821.4,5.02,0.00,25.3,24.2,00.0,34.5,26.9,17.3,0000.0,0010.89,0003.54,0002.19
2022-03-21 10:47:00,,0821.4,4.99,0.00,25.2,24.1,00.0,34.5,26.8,17.3,0000.0,0010.31,0003.53,0002.17
2022-03-21 10:48:00,,0821.5,5.00,0.00,25.2,24.1,00.0,34.4,26.8,17.3,0000.0,0010.09,0003.52,0002.15
2022-03-21 10:49:00,,0821.5,5.00,0.00,25.1,24.0,00.0,34.4,26.8,17.2,0000.0,0009.99,0003.54,0002.13
2022-03-21 10:50:00,,0821.5,5.00,0.00,25.1,24.0,00.0,34.4,26.7,17.2,0000.0,0010.22,0003.56,0002.09
2022-03-21 10:51:00,,0821.5,5.00,0.00,25.1,24.0,00.0,34.4,26.7,17.0,0000.0,0009.50,0003.56,0002.05
2022-03-21 10:52:00,,0821.6,5.00,0.00,25.1,24.0,00.0,34.3,26.7,17.0,0000.0,0010.25,0003.54,0002.03
2022-03-21 10:53:00,,0821.6,5.00,0.00,25.1,24.0,00.0,34.3,26.7,16.9,0000.0,0010.89,0003.51,0001.99
2022-03-21 10:54:00,,0821.7,5.01,0.00,25.0,24.0,00.0,34.3,26.7,16.6,0000.0,0011.41,0003.52,0001.95
2022-03-21 10:55:00,,0821.7,4.99,0.00,25.0,24.0,00.0,34.3,26.7,16.4,0000.0,0010.72,0003.51,0001.90
2022-03-21 10:56:00,,0821.7,5.00,0.00,25.0,24.0,00.0,34.2,26.7,16.2,0000.0,0010.35,0003.44,0001.84
2022-03-21 10:57:00,,0821.8,5.01,0.00,25.0,23.9,00.0,34.2,26.7,16.2,0000.0,0010.19,0003.33,0001.76
2022-03-21 10:58:00,,0821.8,5.00,0.00,25.0,23.9,00.0,34.2,26.6,16.2,0000.0,0010.33,0003.26,0001.70
2022-03-21 10:59:00,,0821.9,5.00,0.00,24.9,23.9,00.0,34.2,26.6,16.2,0000.0,0010.43,0003.19,0001.65
